#timestamp,LO_Frequency,Hit,StdDev 
1508796015.8,286047003.3,N
1508796035.6,286047002.0,N
1508796055.4,286047000.8,N
1508796075.3,286047002.5,N
1508796095.1,286047002.5,N
1508796096.0,286047002.5,N
1508796115.8,286046998.7,N
1508796135.7,286047000.4,N
1508796155.5,286047001.4,N
1508796175.3,286047004.4,N
1508796195.2,286047004.1,N
1508796215.9,286047005.0,N
1508796235.7,286047005.4,N
1508796255.6,286047004.6,N
1508796275.4,286047005.8,N
1508796295.2,286047004.4,N
1508796315.1,286047004.1,N
1508796316.0,286047004.1,N
1508796335.8,286047003.2,N
1508796355.6,286047003.1,N
1508796375.5,286047003.3,N
1508796395.3,286047006.0,N
1508796415.1,286047003.4,N
1508796435.9,286047001.3,N
1508796455.7,286047004.5,N
1508796475.6,286047010.7,Y
1508796495.4,286047006.6,P
1508796515.2,286047009.6,P
1508796535.1,286047012.1,P
1508796536.0,286047012.1,Y
1508796555.8,286047007.2,P
1508796575.6,286047004.6,P
1508796595.5,286047008.0,P
1508796615.3,286047008.2,Y
1508796635.1,286046997.7,P
1508796655.9,286047000.3,N
1508796675.7,286047000.2,N
1508796695.5,286046998.1,N
1508796715.4,286047002.2,N
1508796735.2,286047005.2,N
1508796755.0,286047002.1,N
1508796755.9,286047002.1,N
1508796775.8,286047005.1,N
1508796795.6,286047003.2,N
1508796815.4,286047005.0,N
1508796835.3,286047007.1,N
1508796855.1,286047001.6,N
1508796875.8,286047001.8,N
1508796895.7,286047000.0,N
1508796915.5,286047001.9,N
1508796935.3,286047001.7,N
1508796955.2,286047004.1,N
1508796975.0,286046999.9,N
1508796975.9,286046999.9,N
1508796995.8,286046998.2,N
1508797015.6,286046998.6,N
1508797035.4,286046997.6,N
1508797055.3,286046996.7,N
1508797075.1,286046998.7,N
1508797076.0,286046998.7,N
1508797095.8,286046998.0,N
1508797115.7,286046995.3,N
1508797135.5,286046995.1,N
1508797155.3,286046997.2,N
1508797175.2,286046993.1,N
1508797195.9,286046993.2,N
1508797215.7,286046992.9,N
1508797235.6,286046990.1,N
1508797255.4,286046992.7,N
1508797275.2,286046992.1,N
1508797295.1,286046990.2,N
1508797296.0,286046990.2,N
1508797315.8,286046990.3,N
1508797335.6,286046988.7,N
1508797355.5,286046993.0,N
1508797375.3,286046993.5,N
1508797395.1,286046993.0,N
1508797415.9,286046989.6,N
1508797435.7,286046987.7,N
1508797455.6,286046985.3,Y
1508797475.4,286046991.1,P
1508797495.2,286046988.7,P
1508797515.1,286046988.3,P
1508797516.0,286046988.3,Y
1508797535.8,286046997.8,P
1508797555.6,286046999.1,N
1508797575.5,286046998.8,N
1508797595.3,286046999.1,N
1508797615.1,286046997.3,N
1508797635.9,286046995.8,N
1508797655.7,286046996.2,N
1508797675.5,286046995.7,N
1508797695.4,286046999.0,N
1508797715.2,286046996.5,N
1508797735.0,286046998.2,N
1508797735.9,286046998.2,N
1508797755.8,286047000.9,N
1508797775.6,286046997.5,N
1508797795.5,286046994.9,N
1508797815.3,286046997.0,N
1508797835.1,286046996.6,N
1508797855.9,286046999.2,N
1508797875.7,286046998.7,N
1508797895.5,286046998.5,N
1508797915.4,286046996.8,N
1508797935.2,286046998.1,N
1508797955.0,286047003.9,N
1508797955.9,286047003.9,N
1508797975.8,286047004.4,N
1508797995.6,286047002.4,N
1508798015.4,286046998.5,N
1508798035.3,286046998.8,N
1508798055.1,286046999.2,N
1508798075.8,286046998.5,N
1508798095.7,286046998.2,N
1508798115.5,286047000.5,N
1508798135.3,286047004.4,N
1508798155.2,286047003.8,N
1508798175.9,286047005.9,N
1508798195.7,286047003.0,N
1508798215.6,286047002.5,N
1508798235.4,286046999.3,N
1508798255.2,286046997.9,N
1508798275.1,286046993.5,N
1508798276.0,286046993.5,N
1508798295.8,286046988.5,Y
1508798315.7,286046990.6,P
1508798335.5,286046997.4,N
1508798355.3,286047005.4,N
1508798375.2,286047008.8,N
1508798395.9,286047011.4,N
1508798415.7,286047014.5,N
1508798435.6,286047012.0,N
1508798455.4,286047009.8,N
1508798475.2,286047011.3,N
1508798495.1,286047011.9,N
1508798496.0,286047011.9,N
1508798515.8,286047016.5,N
1508798535.6,286047016.5,N
1508798555.5,286047018.1,N
1508798575.3,286047020.2,N
1508798595.1,286047021.7,N
1508798615.9,286047021.3,N
1508798635.7,286047019.2,N
1508798655.5,286047016.0,N
1508798675.4,286047016.6,N
1508798695.2,286047018.6,N
1508798715.0,286047020.3,N
1508798715.9,286047020.3,N
1508798735.8,286047019.9,N
1508798755.6,286047017.9,N
1508798775.4,286047021.6,N
1508798795.3,286047019.5,N
1508798815.1,286047017.5,N
1508798835.8,286047020.2,N
1508798855.7,286047021.3,N
1508798875.5,286047021.2,N
1508798895.4,286047021.0,Y
1508798915.2,286046999.7,P
1508798935.0,286047001.1,N
1508798935.9,286047001.1,N
1508798955.8,286046998.9,N
1508798975.6,286046997.7,N
1508798995.4,286046996.7,N
1508799015.3,286046999.5,N
1508799035.1,286046997.3,N
1508799055.8,286046998.7,N
1508799075.7,286046998.6,N
1508799095.5,286046998.3,N
1508799115.3,286046994.9,N
1508799135.2,286046991.7,N
1508799155.0,286046991.8,N
1508799155.9,286046991.8,N
1508799175.7,286046993.2,N
1508799195.6,286046990.5,N
1508799215.4,286046992.5,N
1508799235.2,286046993.2,N
1508799255.1,286046990.3,N
1508799256.0,286046990.3,N
1508799275.8,286046989.4,N
1508799295.7,286046988.9,N
1508799315.5,286046991.3,N
1508799335.3,286046991.6,N
1508799355.2,286046991.0,N
1508799375.9,286046993.1,N
1508799395.7,286046990.1,N
1508799415.6,286046994.6,N
1508799435.4,286046994.0,N
1508799455.2,286046991.7,N
1508799475.1,286046994.0,N
1508799476.0,286046994.0,N
1508799495.8,286046993.6,N
1508799515.6,286046996.0,N
1508799535.5,286046990.2,Y
1508799555.3,286046996.7,P
1508799575.1,286046997.0,N
1508799595.9,286046996.5,N
